BAW347 EGLL-SBGR

Flight info

Callsign BAW347
Flight time N/A
Altitude 33000
Route GOGSI N621 SAM M195 LORKU DCT BALDA DCT ABUPI DCT BEXAL DCT SAMAR DCT YUSME DCT LIMAL/N0498F340 N873 IPERA UN873 NTL DCT OPTUR DCT ASGIK/N0498F360 UZ21 VUNOX
Aircraft A35K/H-SDE2E3GHIJ3J4J5LM1ORWXY/LB1D1

Departure

Time 2026-05-07 10:12
Airport London Heathrow Airport (EGLL)

Arrival

Time N/A
Airport São Paulo/Guarulhos–Governor André Franco Montoro International Airport (SBGR)
Time Latitude Longitude Altitude Speed Heading
2026-05-07 09:28 51.47248 -0.48238 92 ft 0 kts 90°
2026-05-07 10:05 51.47248 -0.48262 95 ft 4 kts 90°
2026-05-07 10:05 51.47248 -0.48305 92 ft 4 kts 90°
2026-05-07 10:05 51.47250 -0.48340 94 ft 4 kts 124°
2026-05-07 10:06 51.47269 -0.48359 92 ft 4 kts 176°
2026-05-07 10:06 51.47291 -0.48359 92 ft 1 kts 180°
2026-05-07 10:08 51.47290 -0.48359 92 ft 0 kts 179°
2026-05-07 10:08 51.47273 -0.48359 96 ft 6 kts 179°
2026-05-07 10:08 51.47208 -0.48358 92 ft 10 kts 179°
2026-05-07 10:09 51.47137 -0.48357 94 ft 11 kts 179°
2026-05-07 10:09 51.47061 -0.48356 96 ft 11 kts 179°
2026-05-07 10:09 51.46971 -0.48355 95 ft 13 kts 179°
2026-05-07 10:09 51.46878 -0.48354 92 ft 13 kts 179°
2026-05-07 10:10 51.46787 -0.48353 92 ft 13 kts 182°
2026-05-07 10:10 51.46741 -0.48447 92 ft 11 kts 263°
2026-05-07 10:10 51.46741 -0.48580 92 ft 12 kts 270°
2026-05-07 10:10 51.46733 -0.48716 92 ft 12 kts 243°
2026-05-07 10:11 51.46664 -0.48749 92 ft 11 kts 181°
2026-05-07 10:11 51.46590 -0.48773 92 ft 11 kts 198°
2026-05-07 10:11 51.46512 -0.48776 92 ft 11 kts 156°
2026-05-07 10:11 51.46478 -0.48667 95 ft 14 kts 91°
2026-05-07 10:12 51.46479 -0.48334 93 ft 58 kts 89°
2026-05-07 10:12 51.46482 -0.47294 96 ft 127 kts 90°
2026-05-07 10:12 51.46493 -0.45542 182 ft 174 kts 91°
2026-05-07 10:12 51.46531 -0.43692 1002 ft 165 kts 88°
2026-05-07 10:13 51.46564 -0.41727 1456 ft 190 kts 93°
2026-05-07 10:13 51.46266 -0.39532 1769 ft 218 kts 122°
2026-05-07 10:13 51.45187 -0.37702 2278 ft 235 kts 140°
2026-05-07 10:13 51.43757 -0.36350 2986 ft 243 kts 164°
2026-05-07 10:14 51.42064 -0.35942 3417 ft 249 kts 178°
2026-05-07 10:14 51.40322 -0.35916 3892 ft 252 kts 185°
2026-05-07 10:14 51.38596 -0.36473 4310 ft 255 kts 199°
2026-05-07 10:14 51.37485 -0.37203 4608 ft 257 kts 210°
2026-05-07 10:15 51.35646 -0.39622 5180 ft 262 kts 229°
2026-05-07 10:15 51.34498 -0.41863 5778 ft 260 kts 234°
2026-05-07 10:15 51.33470 -0.44248 6337 ft 261 kts 237°
2026-05-07 10:15 51.32485 -0.46722 6796 ft 266 kts 238°
2026-05-07 10:16 51.31503 -0.49243 7297 ft 269 kts 238°
2026-05-07 10:16 51.30830 -0.50959 7630 ft 270 kts 238°
2026-05-07 10:16 51.29815 -0.53499 8201 ft 272 kts 237°
2026-05-07 10:16 51.28776 -0.56054 8687 ft 276 kts 236°
2026-05-07 10:17 51.27712 -0.58632 9206 ft 280 kts 236°
2026-05-07 10:17 51.26698 -0.61313 9727 ft 283 kts 240°
2026-05-07 10:17 51.25733 -0.64078 10218 ft 287 kts 240°
2026-05-07 10:17 51.24765 -0.66878 10696 ft 290 kts 240°
2026-05-07 10:18 51.23803 -0.69668 11200 ft 291 kts 240°
2026-05-07 10:18 51.22827 -0.72505 11731 ft 292 kts 241°
2026-05-07 10:18 51.21839 -0.75366 12205 ft 295 kts 240°
2026-05-07 10:18 51.20843 -0.78245 12691 ft 298 kts 240°
2026-05-07 10:19 51.19834 -0.81155 13151 ft 301 kts 240°
2026-05-07 10:19 51.18818 -0.84086 13638 ft 303 kts 240°
2026-05-07 10:19 51.17766 -0.86783 14061 ft 305 kts 235°
2026-05-07 10:19 51.16548 -0.89566 14456 ft 308 kts 234°
2026-05-07 10:20 51.15292 -0.92367 14851 ft 312 kts 234°
2026-05-07 10:20 51.14010 -0.95168 15193 ft 314 kts 233°
2026-05-07 10:20 51.12724 -0.97931 15622 ft 315 kts 232°
2026-05-07 10:20 51.11410 -1.00738 16030 ft 319 kts 232°
2026-05-07 10:21 51.10061 -1.03612 16255 ft 330 kts 233°
2026-05-07 10:21 51.08660 -1.06598 16485 ft 343 kts 233°
2026-05-07 10:21 51.07210 -1.09688 16744 ft 355 kts 233°
2026-05-07 10:21 51.05712 -1.12873 16995 ft 365 kts 233°
2026-05-07 10:22 51.04175 -1.16146 17306 ft 372 kts 233°
2026-05-07 10:22 51.02616 -1.19462 17745 ft 376 kts 233°
2026-05-07 10:22 51.01047 -1.22799 18224 ft 378 kts 233°
2026-05-07 10:22 50.99464 -1.26158 18665 ft 381 kts 233°
2026-05-07 10:23 50.97866 -1.29542 19087 ft 384 kts 232°
2026-05-07 10:23 50.96138 -1.32780 19510 ft 386 kts 226°
2026-05-07 10:23 50.94165 -1.35691 19929 ft 388 kts 219°
2026-05-07 10:23 50.91989 -1.38250 20343 ft 391 kts 215°
2026-05-07 10:24 50.89733 -1.40689 20763 ft 393 kts 214°
2026-05-07 10:24 50.87441 -1.43070 21197 ft 395 kts 213°
2026-05-07 10:24 50.85130 -1.45433 21626 ft 397 kts 213°
2026-05-07 10:24 50.82803 -1.47807 22023 ft 399 kts 213°
2026-05-07 10:25 50.80463 -1.50201 22419 ft 401 kts 213°
2026-05-07 10:25 50.78116 -1.52614 22803 ft 404 kts 213°
2026-05-07 10:25 50.75753 -1.55050 23210 ft 406 kts 214°
2026-05-07 10:25 50.73380 -1.57499 23581 ft 409 kts 214°
2026-05-07 10:26 50.70993 -1.59962 23912 ft 411 kts 214°
2026-05-07 10:26 50.68592 -1.62438 24239 ft 413 kts 214°
2026-05-07 10:26 50.66182 -1.64921 24567 ft 415 kts 214°
2026-05-07 10:26 50.63759 -1.67411 24905 ft 417 kts 214°
2026-05-07 10:27 50.61330 -1.69907 25221 ft 418 kts 214°
2026-05-07 10:27 50.58892 -1.72415 25563 ft 419 kts 214°
2026-05-07 10:27 50.56445 -1.74924 25899 ft 421 kts 214°
2026-05-07 10:27 50.53984 -1.77443 26189 ft 423 kts 214°
2026-05-07 10:28 50.51512 -1.79972 26493 ft 425 kts 214°
2026-05-07 10:28 50.49027 -1.82510 26812 ft 426 kts 214°
2026-05-07 10:28 50.46534 -1.85049 27106 ft 428 kts 214°
2026-05-07 10:28 50.44030 -1.87595 27421 ft 430 kts 214°
2026-05-07 10:29 50.41516 -1.90149 27735 ft 431 kts 214°
2026-05-07 10:29 50.38993 -1.92709 28015 ft 433 kts 214°
2026-05-07 10:29 50.36493 -1.95243 28307 ft 434 kts 214°
2026-05-07 10:30 50.31390 -2.00401 28862 ft 438 kts 214°
2026-05-07 10:30 50.28833 -2.02985 29134 ft 439 kts 214°
2026-05-07 10:30 50.26260 -2.05582 29393 ft 441 kts 214°
2026-05-07 10:30 50.23675 -2.08188 29634 ft 442 kts 214°
2026-05-07 10:31 50.21069 -2.10774 29897 ft 444 kts 214°
2026-05-07 10:31 50.18446 -2.13330 30111 ft 446 kts 213°
2026-05-07 10:31 50.15804 -2.15885 30318 ft 447 kts 213°
2026-05-07 10:31 50.13154 -2.18445 30543 ft 448 kts 213°
2026-05-07 10:32 50.10495 -2.21013 30724 ft 450 kts 213°
2026-05-07 10:32 50.07831 -2.23585 30941 ft 451 kts 213°
2026-05-07 10:32 50.05159 -2.26167 31112 ft 453 kts 213°
2026-05-07 10:32 50.02480 -2.28756 31303 ft 454 kts 213°
2026-05-07 10:33 49.99797 -2.31348 31471 ft 455 kts 213°
2026-05-07 10:33 49.97057 -2.33854 31632 ft 458 kts 209°
2026-05-07 10:33 49.94209 -2.36083 31781 ft 459 kts 207°
2026-05-07 10:33 49.91314 -2.38196 31972 ft 460 kts 206°
2026-05-07 10:34 49.88392 -2.40249 32132 ft 461 kts 205°
2026-05-07 10:34 49.85452 -2.42279 32276 ft 463 kts 205°
2026-05-07 10:34 49.82501 -2.44307 32427 ft 464 kts 205°
2026-05-07 10:34 49.79547 -2.46341 32578 ft 465 kts 205°
2026-05-07 10:35 49.76587 -2.48387 32716 ft 466 kts 205°
2026-05-07 10:35 49.73627 -2.50438 32856 ft 467 kts 206°
2026-05-07 10:35 49.70656 -2.52499 32961 ft 468 kts 205°
2026-05-07 10:35 49.67722 -2.54534 33057 ft 470 kts 205°
2026-05-07 10:36 49.61709 -2.58700 33048 ft 476 kts 205°
2026-05-07 10:36 49.55669 -2.62874 33047 ft 475 kts 205°
2026-05-07 10:37 49.49632 -2.67030 33048 ft 475 kts 205°
2026-05-07 10:37 49.43588 -2.71178 33047 ft 474 kts 205°
2026-05-07 10:38 49.37562 -2.75306 33047 ft 474 kts 205°
2026-05-07 10:38 49.32547 -2.78732 33045 ft 474 kts 205°